Home   Weather   Villeurbanne   Past weeks

Flag for France Past Weather in Villeurbanne, Rhône-Alpes, France — Yesterday and Last 2 Weeks

Now
54 °F

Passing clouds.


Feels Like: 50 °F
Forecast: 35 / 63 °F
Wind: 10 mph from North

Location: Lyon / Bron

Current Time: Apr 28, 2017 at 4:03:10 pm

Latest Report: Apr 28, 2017 at 3:00 pm


Visibility: N/A

Pressure: 30.04 "Hg

Humidity: 41%

Dew Point: 30 °F

Location of VilleurbanneLocation

Past Weather in Villeurbanne — Graph

°F

Villeurbanne Temperature Yesterday

Maximum temperature yesterday: 52 °F (at 4:00 pm)
Minimum temperature yesterday: 39 °F (at 3:30 am)
Average temperature yesterday: 44 °F

High & Low Weather Summary for the Past Weeks

 TemperatureHumidityPressure
High73 °F (Apr 24, 3:30 pm)100% (Apr 25, 7:00 pm)30.45 "Hg (Apr 25, 7:00 pm)
Low34 °F (Apr 20, 6:30 am)24% (Apr 18, 2:30 pm)29.68 "Hg (Apr 25, 7:30 pm)
Average52 °F60%30.11 "Hg
* Reported Apr 13 2:00 pm — Apr 28 2:00 pm, Villeurbanne, Weather by CustomWeather, © 2017

Note: Actual official high and low records may vary slightly from our data, if they occured in-between our weather recording intervals... More about our weather records

Advertising

Villeurbanne Weather History for the Previous 24 Hours

Scroll right to see more
 ConditionsComfort  
Time TempWeatherWind HumidityBarometerVisibility
2:00 pm
Fri, Apr 28
52 °FPassing clouds.12 mph44%30.04 "HgN/A
1:30 pm50 °FPassing clouds.14 mph43%30.04 "HgN/A
1:00 pm52 °FPassing clouds.14 mph41%30.04 "HgN/A
12:30 pm52 °FBroken clouds.13 mph41%30.04 "HgN/A
12:00 pm50 °FScattered clouds.15 mph40%30.04 "HgN/A
11:30 am52 °FPassing clouds.16 mph44%30.04 "HgN/A
11:00 am48 °FPartly sunny.15 mph46%30.04 "HgN/A
10:30 am48 °FPartly sunny.16 mph50%30.04 "HgN/A
9:30 am46 °FPassing clouds.14 mph62%30.01 "HgN/A
9:00 am45 °FPassing clouds.9 mph61%30.01 "HgN/A
8:30 am43 °FSunny.9 mph66%30.01 "Hg10 mi
8:00 am41 °FSunny.7 mph70%30.01 "Hg10 mi
7:30 am39 °FSunny.5 mph75%30.01 "Hg10 mi
7:00 am39 °FPassing clouds.8 mph75%29.98 "HgN/A
6:30 am39 °FClear.9 mph75%29.98 "Hg10 mi
6:00 am41 °FClear.8 mph70%29.98 "Hg10 mi
5:30 am41 °FClear.9 mph76%29.98 "Hg10 mi
5:00 am41 °FClear.9 mph76%29.98 "Hg10 mi
4:30 am41 °FClear.10 mph76%29.95 "Hg10 mi
4:00 am41 °FClear.9 mph76%29.95 "Hg10 mi
3:30 am41 °FClear.9 mph76%29.95 "Hg10 mi
3:00 am41 °FClear.10 mph76%29.95 "Hg10 mi
2:30 am41 °FClear.9 mph81%29.95 "Hg10 mi
2:00 am41 °FMostly cloudy.8 mph81%29.98 "HgN/A
1:30 am43 °FOvercast.13 mph76%29.98 "HgN/A
1:00 am43 °FOvercast.10 mph76%29.98 "HgN/A
12:30 am43 °FOvercast.10 mph76%29.98 "HgN/A
12:00 am43 °FMostly cloudy.9 mph76%29.98 "HgN/A
11:30 pm
Thu, Apr 27
43 °FMostly cloudy.12 mph76%29.98 "HgN/A
11:00 pm43 °FMostly cloudy.13 mph76%29.98 "HgN/A
10:30 pm43 °FPartly cloudy.15 mph76%29.98 "HgN/A
10:00 pm45 °FPartly cloudy.13 mph76%29.98 "HgN/A
9:30 pm43 °FPartly cloudy.13 mph81%29.95 "HgN/A
9:00 pm43 °FClear.13 mph76%29.95 "Hg10 mi
8:30 pm45 °FBroken clouds.12 mph76%29.95 "HgN/A
8:00 pm45 °FBroken clouds.15 mph71%29.95 "HgN/A
7:30 pm45 °FBroken clouds.16 mph76%29.95 "HgN/A
7:00 pm45 °FScattered clouds.14 mph71%29.95 "HgN/A
6:30 pm48 °FPartly sunny.10 mph62%29.92 "HgN/A
6:00 pm50 °FBroken clouds.8 mph58%29.92 "HgN/A
5:30 pm48 °FBroken clouds.12 mph58%29.95 "HgN/A
5:00 pm50 °FPassing clouds.13 mph54%29.95 "HgN/A
4:30 pm50 °FPartly sunny.20 mph58%29.95 "HgN/A
4:00 pm52 °FScattered clouds.10 mph44%29.92 "HgN/A
Weather by CustomWeather, © 2017

See weather overviewHow to use our weather pages